Home   Weather   Metairie   Past weeks

Flag for USA Past Weather in Metairie, Louisiana, USA — Yesterday and Last 2 Weeks

Now
81 °F

Cloudy.


Feels Like: 86 °F
Forecast: 78 / 89 °F
Wind: 7 mph from North

Location: New Orleans International Airport

Current Time: May 28, 2017 at 9:46:43 am

Latest Report: May 28, 2017 at 8:53 am


Visibility: 7 mi

Pressure: 30.07 "Hg

Humidity: 79%

Dew Point: 74 °F

Location of MetairieLocation

Past Weather in Metairie — Graph

°F

Metairie Temperature Yesterday

Maximum temperature yesterday: 88 °F (at 2:53 pm)
Minimum temperature yesterday: 76 °F (at 12:53 am)
Average temperature yesterday: 81 °F

High & Low Weather Summary for the Past Weeks

 TemperatureHumidityPressure
High88 °F (May 19, 1:53 pm)97% (May 15, 5:53 am)30.13 "Hg (May 15, 5:53 am)
Low58 °F (May 25, 5:53 am)39% (May 24, 4:53 pm)29.67 "Hg (May 24, 5:53 am)
Average77 °F77%29.93 "Hg
* Reported May 13 7:10 am — May 28 7:53 am, Metairie. Weather by CustomWeather, © 2017

Note: Actual official high and low records may vary slightly from our data, if they occured in-between our weather recording intervals... More about our weather records

Advertising

Metairie Weather History for the Previous 24 Hours

Scroll right to see more
 ConditionsComfort  
Time TempWeatherWind HumidityBarometerVisibility
7:53 am
Sun, May 28
80 °FBroken clouds.No wind85%30.04 "Hg7 mi
7:21 am79 °FFog.No wind88%30.02 "Hg6 mi
6:53 am78 °FBroken clouds.No wind90%30.01 "Hg7 mi
5:53 am76 °FPartly cloudy.No wind97%29.97 "Hg7 mi
4:53 am77 °FPassing clouds.6 mph94%29.93 "Hg8 mi
4:29 am77 °FPassing clouds.5 mph94%29.92 "Hg8 mi
3:53 am77 °FPassing clouds.5 mph94%29.93 "Hg8 mi
2:53 am77 °FPassing clouds.6 mph94%29.92 "Hg7 mi
2:20 am78 °FPassing clouds.6 mph90%29.93 "Hg8 mi
1:53 am79 °FPassing clouds.9 mph88%29.93 "Hg8 mi
12:53 am79 °FPassing clouds.6 mph90%29.94 "Hg7 mi
11:53 pm
Sat, May 27
79 °FPassing clouds.8 mph90%29.93 "Hg8 mi
11:12 pm79 °FPassing clouds.9 mph90%29.95 "Hg8 mi
10:53 pm79 °FPassing clouds.10 mph90%29.96 "Hg8 mi
10:41 pm79 °FPassing clouds.10 mph94%29.96 "Hg8 mi
9:53 pm80 °FPassing clouds.12 mph90%29.96 "Hg8 mi
8:53 pm81 °FPassing clouds.20 mph88%29.97 "Hg10 mi
7:53 pm82 °FScattered clouds.7 mph79%29.97 "Hg10 mi
6:53 pm84 °FScattered clouds.10 mph74%29.98 "Hg10 mi
5:53 pm85 °FScattered clouds.9 mph72%29.98 "Hg10 mi
4:53 pm87 °FScattered clouds.14 mph67%29.99 "Hg10 mi
3:53 pm87 °FScattered clouds.14 mph67%30.01 "Hg10 mi
2:53 pm88 °FBroken clouds.13 mph67%30.02 "Hg10 mi
1:53 pm87 °FBroken clouds.14 mph67%30.04 "Hg10 mi
12:53 pm86 °FBroken clouds.12 mph72%30.06 "Hg10 mi
11:53 am86 °FBroken clouds.8 mph72%30.06 "Hg10 mi
10:53 am85 °FBroken clouds.8 mph72%30.06 "Hg10 mi
9:53 am84 °FBroken clouds.10 mph74%30.05 "Hg10 mi
9:13 am82 °FBroken clouds.10 mph79%30.04 "Hg9 mi
Weather by CustomWeather, © 2017

See weather overviewHow to use our weather pages